Regional Weather Roundup
Issued by NWS Jackson, KY

Home | Current Version | Previous Version | Text Only | Print | Product List | Glossary On
Versions: 1 2 3 4 5 6 7 8 9 10 11 12 13 14 15 16 17 18 19 20 21 22 23 24 25 26 27 28 29 30 31 32 33 34 35 36 37 38 39 40 41 42 43 44 45 46 47 48 49 50
000
ASUS43 KJKL 291010
RWRJKL

EAST KENTUCKY HOURLY WEATHER ROUNDUP
NATIONAL WEATHER SERVICE JACKSON KY
600 AM EDT MON MAY 29 2017

NOTE: "FAIR" INDICATES FEW OR NO CLOUDS BELOW 12,000 FEET WITH
NO SIGNIFICANT WEATHER AND/OR OBSTRUCTIONS TO VISIBILITY.

* THESE REPORTS ARE NOT UNDER NWS QUALITY CONTROL AND MAY NOT
  REPORT WEATHER SUCH AS PRECIPITATION AND FOG.

KYZ079-080-083-085-087-088-110-112-115-119-120-291100
...EASTERN KENTUCKY...

CITY           SKY/WX    TMP DP  RH WIND       PRES   REMARKS
JACKSON        MOCLDY    64  62  93 CALM      29.95R
LONDON         CLOUDY    65  61  87 SW7       29.97R
SOMERSET*      CLOUDY    61  61 100 CALM      29.98R
MONTICELLO*    CLOUDY    65  63  93 W12       29.99S
WILLIAMSBURG*  CLOUDY    64  64 100 SW3       29.98R
MIDDLESBORO*   CLOUDY    64  64  99 CALM      29.98R
HARLAN APT*    CLOUDY    63  61  94 CALM      29.98R
PIKE CO APT*   CLOUDY    65  64  97 SW6       29.94S
BIG SANDY APT* CLOUDY    67  64  90 W6        29.93R
MOREHEAD APT*  CLOUDY    63  61  94 SW6       29.94R
ASHLAND*       CLOUDY    63  61  94 CALM      29.88R
$$

KYZ035-036-041-042-044-050-067-078-099-291100
...CENTRAL KENTUCKY...

CITY           SKY/WX    TMP DP  RH WIND       PRES   REMARKS
MT STERLING*   MOCLDY    61  61 100 W5        29.95R
FLEMING/MASON* CLOUDY    61  60  97 W7        29.93R
DANVILLE*      MOCLDY    63  61  94 W6        29.96R
LEXINGTON      CLOUDY    65  62  90 SW7       29.94R
FRANKFORT      CLOUDY    64  61  90 SW5       29.92R FOG
LOUISVILLE     PTCLDY    66  63  90 S5        29.92R
LEBANON*         N/A     63  63 100 S5        29.95R
GLASGOW*       MOCLDY   N/A N/A N/A CALM      29.96S HAZE
BOWLING GREEN  CLOUDY    64  64 100 SW5       29.96R
$$

KYZ091>093-OHZ055-061-077-WVZ005-015-034-035-042-291100
...SOUTHERN OHIO/WEST VIRGINIA...

CITY           SKY/WX    TMP DP  RH WIND       PRES   REMARKS
COVINGTON      FOG       62  62 100 SW8       29.89R VSB<1/4
COLUMBUS       CLEAR     61  61 100 SW3       29.84R
DAYTON         CLEAR     60  58  92 SW8       29.87R
WILMINGTON     CLOUDY    59  59 100 SW6       29.88R FOG
HUNTINGTON     PTCLDY    64  61  90 SW6       29.89R
CHARLESTON     MOCLDY    68  61  78 SW9       29.89R
PINEVILLE*     CLOUDY    63  62  96 MISG      29.98S
BECKLEY        CLOUDY    62  58  86 SW6       29.95R
BLUEFIELD      CLOUDY    60  56  86 W8        29.98R
LOGAN CO APT*  CLOUDY    66  61  82 SW6       29.93R
$$

VAZ002-007-008-TNZ017-027-036-066-071-291100
...SOUTHWEST VIRGINIA/EAST TENNESSEE...

CITY           SKY/WX    TMP DP  RH WIND       PRES   REMARKS
WISE*          MOCLDY    63  63 100 CALM      30.01R
JONESVILLE*    CLOUDY    63  63 100 CALM      30.00R
ABINGDON*      CLOUDY    64  64 100 W3        29.99R FOG
BRISTOL        MOCLDY    63  62  97 CALM      29.97R
MORRISTOWN*    CLOUDY    64  63  94 CALM      29.97R
SEVIERVILLE*   PTSUNNY   64  63  94 CALM      29.97R
KNOXVILLE      CLOUDY    68  62  81 SW7       29.96S
LAFOLLETTE*    CLOUDY    68  63  83 CALM      30.00S
OAK RIDGE      CLOUDY    67  61  81 CALM      29.98R
CROSSVILLE     CLOUDY    63  61  93 CALM      30.02R
NASHVILLE      CLOUDY    65  63  93 S5        29.98R
$$

...KEY TO REMARKS...
VSB - VISIBILITY IN MILES
WCI - WIND CHILL INDEX
HX  - HEAT INDEX

$$



USA.gov is the U.S. government's official web portal to all federal, state and local government web resources and services.